COSMOS 252 DEB, 3900

Orbit data source: Space-Track

COSMOS 252 DEB, 3900 is space debris in LEO originally from a launch on Fri, 01 Nov 1968 UTC launched from the Tyuratam Missile And Space Complex (TTMTR). Debris objects in space refer to the collection of defunct objects orbiting the Earth. Examples of debris include non-operational satellites, rocket bodies, and fragments generated from explosions, collisions, or faulty payload assembly.

Loading next visibility...
Identifier
3900, 1968-097BM
Orbit
LEO
Country
Flag of CISCIS
Related business
Manufacturer
Unknown
Mission
Spacecraft
Bus & Motor
Unknown
Mass
Unknown
Launch date (UTC)
1968-11-01 (58 years ago)
Launch vehicle
Unknown
Launch site
Tyuratam Missile And Space Complex (TTMTR)
Object type
Payload
Rocket body
Debris
Shape & HBR
Unknown shape, 0.1 m
Radar Cross Section
Medium (>0.1 m² and <1 m²)

Expand to show TLE details & history
Last TLE update: 13 hours ago

TLE from 13 hours ago
0 COSMOS 252 DEB
1 03900U 68097BM  26236.49229538  .00005199  00000-0  45172-3 0  9999
2 03900  62.1971 116.5435 0174209 280.6001  77.5505 14.87295132899697
Epoch: 2026-08-24T11:48Z
TLE epoch observation values (Epoch: 2026-08-24T11:48:54.320Z)
Latitude
-0.00002°
Longitude
-33.45606°
Altitude
583.969 km
Speed
7.582 km/s
True Right ascension
07h 46m 10s
True Declination
0° 00' 00"
Sunlit
Object was in daylight at epoch
Visualization orbit readout
Latitude
Unknown
Longitude
Unknown
Altitude
Unknown
Speed
Unknown
Apparent Right ascension
Unknown
Apparent Declination
Unknown
Sunlit
N/A
Visualization observer readout
Local Sidereal Time
15:53:35
Azimuth
Unknown
Elevation
Unknown
Doppler factor
Unknown
Orbital elements
Apogee altitude
726.958 km
Perigee altitude
483.642 km
Semi-major axis
6,983.437 km
Eccentricity
0.01742
Inclination
62.1971°
RAAN
116.5435°
Arg. of periapsis
280.6001°
True anomaly
79.50866°
Mean anomaly
77.5505°
Eccentric anomaly
78.52871°
Mean motion
3.71911 °/min
Orbital period
96.8 mins
BSTAR
0.00045172
Loading maneuver chart data...
Computing Atmospheric mass density...
Loading historical data...
Loading historical data...
Loading historical data...
Loading historical data...
Loading historical data...
Loading historical data...
Loading historical data...

Documentation

Showing up to 5 results
|